Location: Neuvy Saint Sepulchre
(46.5953°N, 1.8122°E)
Time: 09:10:11
(UTC+02:00)

ISS - Pass Details

Date: 27 March 2024
Orbit: 413 x 419 km, 51.6° (Epoch: 13 April)

Event Time Altitude Azimuth Distance (km) Brightness Sun altitude
Rises 20:37:06 0° 296° (WNW) 2,365 2.0 -14.4°
Reaches altitude 10° 20:39:12 10° 296° (WNW) 1,501 0.5 -14.8°
Maximum altitude 20:42:34 87° 207° (SSW) 425 -3.8 -15.3°
Enters shadow 20:43:48 37° 120° (ESE) 675 -3.3 -15.5°
